Links & Downloads

Hier präsentieren wir eine Auswahl wichtiger Downloads und interessanter Internetseiten. Wir versuchen, diese Seite immer auf aktuellem Stand zu halten.

Dokumente & Programme

  FluPP, ein kostenloses Flugbuch für Windows, mit dem man seine Flüge (Segelflug, Ultraleicht, Motorsegler, Motorflug...) verwalten kann
 
OLC - SegelflugszeneOLC - Segelflugszene

  Alle Streckenflüge des VfS |   Streckenflüge ab Krefeld |   Landesliga - Tabelle

Wetter


METAR / TAF Düsseldorf

[Quelle: ADDS]
METAR
EDDL 222320Z 07004KT 9999 MIFG NSC 06/05 Q1038 NOSIG =
EDDL 221700Z 2218/2324 07006KT 9999 FEW035 BECMG 2221/2224 13006KT BECMG 2306/2309 14011KT
TAF
EDDL 221700Z 2218/2324 07006KT 9999 FEW035 BECMG 2221/2224 13006KT BECMG 2306/2309 14011KT =
SR / SS: 06:31 / 17:01 UTC ( 2019-02-22)

Luftsportportale

Verbände

Behörden

 
Bundesamt für Naturschutz:
Gebiete mit Vogelvorkommen mit besonderer Luftfahrtrelevanz (Aircraft relevant Bird Area)
1.   Allgemein
2.   Niederrhein

Fliegerärzte

Vereinsflieger